Tracking 20083 objects as of 12-Dec-2019
HD Live streaming from Space Station
objects crossing your sky now

PLEM COVER

Track PLEM COVER now!
10-day predictions


NORAD ID: 27611
Int'l Code: 2002-058G
Perigee: 531.0 km
Apogee: 559.0 km
Inclination: 64.5 °
Period: 95.4 minutes
Semi major axis: 6915 km
RCS: 3.6273 m2 (large)
Launch date: December 20, 2002
Source: Commonwealth of Independent States (former USSR) (CIS)
Launch site: TYURATAM MISSILE AND SPACE COMPLEX (TTMTR)

Note: This is SATELLITE DEBRIS
aabbcc
Your satellite tracking list
Your tracking list is empty




NASA's NSSDC Master Catalog

Two Line Element Set (TLE):
1 27611U 02058G   19345.46016504  .00000886  00000-0  66572-4 0  9992
2 27611  64.5403  30.3584 0020260 252.2393 107.6515 15.09458724924410
Source of the keplerian elements: AFSPC